STARLINK-31993, 59961

Orbit data source: Space-Track

STARLINK-31993, 59961 is a payload satellite owned by SpaceX/Seattle (US) in LEO that was launched on Wed, 05 Jun 2024 UTC via an FALCON 9 launch vehicle from the Air Force Eastern Test Range (AFETR). Payload-class satellites include a variety of spacecraft equipped with specific instruments for various scientific and technological missions. These include communications satellites like Starlink; space stations such as the ISS; scientific satellites like the Hubble; Earth observation satellites from companies like Planet Labs, Umbra, and HawkEye 360; GPS; miniature CubeSats for education and research; and military/defense satellites.

Loading next visibility...
Identifier
59961, 2024-107S
Orbit
LEO
Country
Flag of USUS
Related business
Manufacturer
SpaceX/Seattle
Mission
Operational Commercial Communications
Bus & Motor
STARLINK V2M, Unknown motor
Mass
730 kg wet, ~700 kg dry
Launch date (UTC)
2024-06-05 (1 year ago)
Launch vehicle
FALCON 9
Launch site
Air Force Eastern Test Range (AFETR)
Object type
Payload
Rocket body
Debris
Shape & HBR
Box + 2 Pan, 17.7 m
Radar Cross Section
33.884 m², Large (>1 m²)

Expand to show TLE details & history
Last TLE update: 16 hours ago

TLE from 16 hours ago
0 STARLINK-31993
1 59961U 24107S   25301.34513630  .00000991  00000-0  45571-4 0  9995
2 59961  53.1598 320.2776 0001141  81.1168 278.9962 15.30198324 79478
Epoch: 2025-10-28T08:16Z
TLE epoch observation values (Epoch: 2025-10-28T08:16:59.776Z)
Latitude
-0.00001°
Longitude
159.09457°
Altitude
475.998 km
Speed
7.629 km/s
True Right ascension
21h 21m 06s
True Declination
0° 00' 00"
Sunlit
Object was in daylight at epoch
Visualization orbit readout
Latitude
Unknown
Longitude
Unknown
Altitude
Unknown
Speed
Unknown
Apparent Right ascension
Unknown
Apparent Declination
Unknown
Sunlit
N/A
Visualization observer readout
Local Sidereal Time
19:54:48
Azimuth
Unknown
Elevation
Unknown
Doppler factor
Unknown
Orbital elements
Apogee altitude
476.259 km
Perigee altitude
474.695 km
Semi-major axis
6,853.614 km
Eccentricity
0.00011
Inclination
53.1598°
RAAN
320.2776°
Arg. of periapsis
81.1168°
True anomaly
278.98329°
Mean anomaly
278.9962°
Eccentric anomaly
278.98974°
Mean motion
3.82528 °/min
Orbital period
94.11 mins
BSTAR
0.000045571
Loading maneuver chart data...
Computing Atmospheric mass density...
Loading historical data...
Loading historical data...
Loading historical data...
Loading historical data...
Loading historical data...
Loading historical data...
Loading historical data...

Documentation

Showing up to 5 results
|